Weather History for Truckee-Tahoe, CA

Change the Weather History Date:

Thursday, March 27, 2014

  Actual Average Record
Temperature  
Mean Temperature 32 °F -  
Max Temperature 39 °F 48 °F 70 °F (1988)
Min Temperature 26 °F 23 °F 13 °F (1975)
Degree Days  
Heating Degree Days 32    
Moisture  
Dew Point 26 °F    
Average Humidity 82    
Maximum Humidity 93    
Minimum Humidity 70    
Precipitation  
Precipitation 0.00 in - - ()
Snow  
Snow 0.00 in - - ()
Snow Depth 2.00 in    
Sea Level Pressure  
Sea Level Pressure 29.96 in    
Wind  
Wind Speed 6 mph (SW)    
Max Wind Speed 14 mph    
Max Gust Speed 20 mph    
Visibility 10 miles    
Events      
Averages and records for this station are not official NWS values.
T = Trace of Precipitation, MM = Missing Value Source: NWS Daily Summary

Daily Weather History Graph

Daily Weather History Graph

Search for Another Location

Airport:

Trip Planner

Search our weather history database for the weather conditions in past years. The results will help you decide how hot, cold, wet, or windy it might be!

Date:

Astronomy

Mar. 27, 2014 Rise Set
Actual Time 6:52 AM PDT 7:19 PM PDT
Civil Twilight 6:25 AM PDT 7:46 PM PDT
Nautical Twilight 5:54 AM PDT 8:18 PM PDT
Astronomical Twilight 5:21 AM PDT 8:50 PM PDT
Moon 4:46 AM PDT (3/27) 4:13 PM PDT (3/27)
Length of Visible Light 13h 20m
Length of Day
12h 26m
Waning Crescent, 12% of the Moon is Illuminated
Mar 27
Waning Crescent
Mar 30
New
Apr 7
First Quarter
Apr 15
Full
Apr 22
Last Quarter

Hourly Weather History & Observations

Time (PDT) Temp. Windchill Dew Point Humidity Pressure Visibility Wind Dir Wind Speed Gust Speed Precip Events Conditions
12:15 AM 30.2 °F 22.6 °F 26.6 °F 86% 29.83 in 10.0 mi SW 8.1 mph - N/A   Mostly Cloudy
12:35 AM 30.2 °F 21.3 °F 23.0 °F 75% 29.83 in 10.0 mi SSW 10.4 mph 16.1 mph N/A   Mostly Cloudy
12:55 AM 30.2 °F 21.9 °F 24.8 °F 80% 29.83 in 10.0 mi SSW 9.2 mph - N/A   Overcast
1:15 AM 30.2 °F 22.6 °F 26.6 °F 86% 29.83 in 7.0 mi SSW 8.1 mph - N/A   Overcast
1:35 AM 28.4 °F 22.2 °F 26.6 °F 93% 29.84 in 10.0 mi SSW 5.8 mph - N/A   Overcast
1:55 AM 30.2 °F 21.3 °F 24.8 °F 80% 29.84 in 10.0 mi SSW 10.4 mph - N/A   Overcast
2:15 AM 30.2 °F 21.9 °F 23.0 °F 75% 29.85 in 10.0 mi SW 9.2 mph - N/A   Overcast
2:35 AM 30.2 °F 25.4 °F 23.0 °F 75% 29.85 in 10.0 mi SSW 4.6 mph - N/A   Overcast
2:55 AM 30.2 °F 22.6 °F 24.8 °F 80% 29.86 in 10.0 mi SSW 8.1 mph - N/A   Overcast
3:15 AM 28.4 °F 23.3 °F 26.6 °F 93% 29.86 in 10.0 mi SSW 4.6 mph - N/A   Overcast
3:35 AM 28.4 °F 23.3 °F 26.6 °F 93% 29.85 in 10.0 mi SW 4.6 mph - N/A   Overcast
3:55 AM 30.2 °F 22.6 °F 24.8 °F 80% 29.85 in 10.0 mi SW 8.1 mph - N/A   Overcast
4:15 AM 28.4 °F 22.2 °F 23.0 °F 80% 29.85 in 10.0 mi SW 5.8 mph - N/A   Overcast
4:35 AM 30.2 °F 23.4 °F 24.8 °F 80% 29.86 in 10.0 mi SW 6.9 mph - N/A   Overcast
4:55 AM 30.2 °F 21.3 °F 23.0 °F 75% 29.86 in 10.0 mi SW 10.4 mph - N/A   Mostly Cloudy
5:15 AM 30.2 °F 21.3 °F 23.0 °F 75% 29.86 in 10.0 mi SW 10.4 mph - N/A   Mostly Cloudy
5:35 AM 30.2 °F 22.6 °F 23.0 °F 75% 29.86 in 10.0 mi SW 8.1 mph - N/A   Overcast
5:55 AM 28.4 °F 20.4 °F 23.0 °F 80% 29.87 in 10.0 mi SSW 8.1 mph - N/A   Overcast
6:15 AM 28.4 °F 23.3 °F 21.2 °F 74% 29.88 in 10.0 mi SW 4.6 mph - N/A   Mostly Cloudy
6:35 AM 28.4 °F 24.6 °F 21.2 °F 74% 29.88 in 10.0 mi SW 3.5 mph - N/A   Overcast
6:50 AM 26.6 °F - 21.2 °F 80% 29.88 in 8.0 mi Calm Calm - N/A   Overcast
7:45 AM 28.4 °F 22.2 °F 23.0 °F 80% 29.91 in 8.0 mi NNE 5.8 mph - N/A   Overcast
8:50 AM 30.2 °F - 26.6 °F 86% 29.92 in 10.0 mi Calm Calm - N/A   Overcast
9:55 AM 30.2 °F - 28.4 °F 93% 29.95 in 4.0 mi Calm Calm - N/A   Overcast
10:50 AM 33.8 °F 25.3 °F 26.6 °F 75% 29.97 in 10.0 mi WSW 11.5 mph 19.6 mph N/A   Overcast
11:55 AM 37.4 °F 29.8 °F 28.4 °F 70% 29.98 in 10.0 mi SW 11.5 mph - N/A   Mostly Cloudy
12:45 PM 35.6 °F - 26.6 °F 70% 30.00 in 10.0 mi Calm Calm - N/A   Mostly Cloudy
1:45 PM 37.4 °F 31.4 °F 32.0 °F 81% 30.00 in 10.0 mi West 8.1 mph - N/A   Mostly Cloudy
2:45 PM 39.2 °F 33.0 °F 30.2 °F 70% 30.00 in 10.0 mi West 9.2 mph 11.5 mph N/A   Mostly Cloudy
3:45 PM 39.2 °F 35.0 °F 30.2 °F 70% 30.01 in 10.0 mi WSW 5.8 mph - N/A   Mostly Cloudy
4:50 PM 37.4 °F 32.8 °F 28.4 °F 70% 30.00 in 10.0 mi West 5.8 mph - N/A   Mostly Cloudy
5:55 PM 35.6 °F 26.6 °F 28.4 °F 75% 30.02 in 10.0 mi West 13.8 mph - N/A   Mostly Cloudy
6:15 PM 33.8 °F 25.8 °F 30.2 °F 87% 30.03 in 10.0 mi West 10.4 mph - N/A   Overcast
6:35 PM 33.8 °F 26.4 °F 28.4 °F 81% 30.04 in 10.0 mi West 9.2 mph - N/A   Overcast
6:55 PM 33.8 °F 28.6 °F 28.4 °F 81% 30.05 in 10.0 mi WNW 5.8 mph - N/A   Overcast
7:15 PM 33.8 °F 29.6 °F 28.4 °F 81% 30.06 in 10.0 mi West 4.6 mph - N/A   Overcast
7:35 PM 32.0 °F 28.7 °F 28.4 °F 87% 30.05 in 10.0 mi SSW 3.5 mph - N/A   Overcast
7:55 PM 32.0 °F 28.7 °F 28.4 °F 87% 30.06 in 10.0 mi ESE 3.5 mph - N/A   Overcast
8:15 PM 32.0 °F - 28.4 °F 87% 30.06 in 10.0 mi Calm Calm - N/A   Mostly Cloudy
8:35 PM 32.0 °F - 28.4 °F 87% 30.07 in 10.0 mi Calm Calm - N/A   Scattered Clouds
8:55 PM 32.0 °F - 28.4 °F 87% 30.07 in 10.0 mi Calm Calm - N/A   Mostly Cloudy
9:15 PM 32.0 °F - 26.6 °F 80% 30.07 in 10.0 mi Calm Calm - N/A   Scattered Clouds
9:35 PM 32.0 °F - 28.4 °F 87% 30.07 in 10.0 mi Calm Calm - N/A   Clear
9:55 PM 32.0 °F - 28.4 °F 87% 30.08 in 10.0 mi Calm Calm - N/A   Scattered Clouds
10:15 PM 32.0 °F - 28.4 °F 87% 30.09 in 10.0 mi Calm Calm - N/A   Mostly Cloudy
10:35 PM 30.2 °F - 28.4 °F 93% 30.10 in 10.0 mi Calm Calm - N/A   Scattered Clouds
10:55 PM 28.4 °F - 26.6 °F 93% 30.10 in 10.0 mi Calm Calm - N/A   Mostly Cloudy
11:15 PM 30.2 °F - 28.4 °F 93% 30.11 in 10.0 mi Calm Calm - N/A   Overcast
11:35 PM 30.2 °F - 28.4 °F 93% 30.11 in 10.0 mi Calm Calm - N/A   Mostly Cloudy
11:55 PM 30.2 °F - 28.4 °F 93% 30.11 in 10.0 mi Calm Calm - N/A   Mostly Cloudy